CARTOSAT-3

Last updated on Fri Oct 04 2024 00:02:26 GMT+0000 (Coordinated Universal Time)

1 44804U 19081A 24277.52608781 .00014874 00000+0 70904-3 0 9994 2 44804 97.5199 334.9263 0015199 160.1197 200.0632 15.19101320269083
UTC large
Height (km)
Speed (km/s)
/
Latitude / Longitude
Inclination (degrees)
Orbital Period (minutes)
Azimuth
Elevation
Range (km)
Doppler Factor

Next 0 passes for location: London (51.5072 / 0.1276)

Sorry there are no passes over London.